Tracking 19854 objects as of 22-Sep-2019
HD Live streaming from Space Station
objects crossing your sky now

OPS 7898 (P/L 3)

Track OPS 7898 (P/L 3) now!
10-day predictions
OPS 7898 (P/L 3) is classified as:


NORAD ID: 5681
Int'l Code: 1971-110D
Perigee: 985.3 km
Apogee: 996.6 km
Inclination: 70.0 °
Period: 104.8 minutes
Semi major axis: 7361 km
RCS: Unknown
Launch date: December 14, 1971
Source: United States (US)
Launch site: AIR FORCE WESTERN TEST RANGE (AFWTR)
aabbcc
Your satellite tracking list
Your tracking list is empty




NASA's NSSDC Master Catalog

Two Line Element Set (TLE):
1  5681U 71110D   19264.55677672 -.00000061  00000-0 -11815-4 0  9996
2  5681  69.9851  41.6432 0007723 359.3975   0.7108 13.74403703 18692
Source of the keplerian elements: McCants